Orbital elements:
2024 GB4                                                 Earth MOID = 0.0057 AU
Epoch 2024 Mar. 31.0 TT = JDT 2460400.5                 MPC                     
M  48.29684              (2000.0)            P               Q                  
n   0.86107162     Peri.  280.71368     -0.45278845     -0.89048373             
a   1.0942331      Node   196.43626     +0.86750811     -0.42833750             
e   0.2337693      Incl.    9.14283     +0.20594246     -0.15351132             
P   1.14           H   25.76          G   0.15           U   7                  
Residuals in seconds of arc
240410 L51  0.6-  0.3+    240410 958  0.2+  0.3+    240411 587  0.2-  0.2+
240410 L51  0.7-  0.2+    240410 958  0.3-  0.2+    240411 106  0.0   0.1+
240410 L51  0.3-  0.2+    240410 958  0.1-  0.1+    240411 K19  1.0-  0.9+
240410 G34  1.1+  0.4+    240411 858  0.4-  0.1-    240411 K19  1.1+  0.7+
240410 G34  0.3+  1.1-    240411 858  0.4-  0.1+    240411 K19  0.4+  0.0
240410 L76  1.3-  0.3+    240411 858  0.1-  0.1-    240411 104  0.3-  0.1-
240410 G34  0.9+  0.9-    240411 734  0.4+  0.0     240411 104  0.6+  0.4-
240410 G34  0.4-  1.1+    240411 734  0.7+  0.5-    240411 595  0.1+  0.3+
240410 L76  0.8-  0.5+    240411 734  0.6+  0.2-    240411 595  0.3+  0.2+
240410 L76  0.2+  0.0     240411 I52  0.2-  0.1-    240411 104  0.1+  0.3+
240410 I93  0.4-  0.2+    240411 I52  0.0   0.1+    240411 595  0.3+  0.2+
240410 K19  0.6-  0.6+    240411 I52  0.1-  0.0     240411 C95  0.2+  0.7-
240410 I93  0.6-  0.0     240411 I52  0.2-  0.0     240411 C95  0.4+  0.0
240410 K19  0.8-  0.6+    240411 U74  1.6-  0.8-    240411 C95  0.0   0.1-
240410 I93  0.5-  0.4+    240411 U74  1.1+  0.6-    240411 204  0.1-  0.0
240410 K19  0.5-  0.9+    240411 033  0.1-  0.2-    240411 K74  0.1-  0.1+
240410 033  0.5-  0.7+    240411 033  0.7+  0.5+    240411 204  0.0   0.1+
240410 033  0.8-  0.6+    240411 033  0.1-  0.1+    240411 K74  0.4+  0.0
240410 033  0.6-  0.7+    240411 033  0.1+  0.1-    240411 G15  0.3+  0.3-
240410 033  0.1-  0.5+    240411 033  0.6-  0.0     240411 K74  0.6+  0.0
240410 033  0.6-  0.6+    240411 106  0.1+  0.1+    240411 G15  0.6-  0.3-
240410 033  0.6-  0.7+    240411 587  0.2-  0.1-    240412 858  0.1-  0.3-
240410 033  0.6-  0.8+    240411 106  0.1+  0.1+    240412 858  0.1-  0.3-
240410 033  0.7-  0.5+    240411 587  0.3-  0.1+    240412 858  0.2-  0.3-
240410 033  0.4-  0.7+    240411 106  0.3+  0.2-

Ephemeris:
2024 GB4                 a,e,i = 1.09, 0.23, 9                   q = 0.8384
Date    TT    R. A. (2000) Decl.     Delta      r    Elong.  Phase     V
2024 03 13    02 11 48.5 -20 08 48   0.1284  0.9033    42.4   132.1    27.0
...
2024 03 28    02 35 05.9 -15 53 55   0.05487 0.9547    36.8   141.3    26.4
...
2024 04 05    03 21 04.9 +03 56 56   0.01918 0.9850    36.0   143.3    24.5
...
2024 04 11    11 38 42.8 +56 15 43   0.01638 1.0085   112.2    66.9    19.2
2024 04 12    12 26 50.4 +50 57 02   0.02015 1.0124   119.2    59.8    19.5
2024 04 13    12 53 07.5 +46 46 32   0.02425 1.0164   123.7    55.1    19.7
...
2024 04 19    13 41 49.5 +35 20 10   0.05110 1.0402   133.5    44.5    21.1
...
2024 04 27    13 56 09.2 +30 09 04   0.08877 1.0718   135.7    41.0    22.3
...
2024 05 12    14 05 35.6 +24 46 11   0.1634  1.1295   133.8    40.2    23.7

A. U. Tomatic                (C) Copyright 2024 MPC           M.P.E.C. 2024-G168





More information about the Iaude mailing list